DELTA 1 R/B, 2096

Orbit data source: Space-Track

DELTA 1 R/B, 2096 is space debris in SSO originally from a launch on Mon, 28 Feb 1966 UTC launched from the Air Force Eastern Test Range (AFETR). Debris objects in space refer to the collection of defunct objects orbiting the Earth. Examples of debris include non-operational satellites, rocket bodies, and fragments generated from explosions, collisions, or faulty payload assembly.

Loading next visibility...
Identifier
2096, 1966-016B
Orbit
SSO
Country
Flag of USUS
Related business
Manufacturer
ABL
Mission
Spacecraft
Bus & Motor
ALTAIR, Unknown motor
Mass
33 kg wet, 33 kg dry
Launch date (UTC)
1966-02-28 (60 years ago)
Launch vehicle
Unknown
Launch site
Air Force Eastern Test Range (AFETR)
Object type
Payload
Rocket body
Debris
Shape & HBR
Cyl, 0.8 m
Radar Cross Section
0.687 m², Medium (>0.1 m² and < 1m²)

Expand to show TLE details & history
Last TLE update: 11 hours ago

TLE from 11 hours ago
0 DELTA 1 R/B
1 02096U 66016B   25242.12911299 -.00000030  00000-0  61536-4 0  9994
2 02096 100.9027  90.2831 0040442  41.8913  73.1449 12.69980593757123
Epoch: 2025-08-30T03:05Z
TLE epoch observation values (Epoch: 2025-08-30T03:05:55.362Z)
Latitude
62.51751°
Longitude
-93.14492°
Altitude
1,383.618 km
Speed
7.177 km/s
True Right ascension
19h 27m 36s
True Declination
62° 23' 16"
Sunlit
Object was in daylight at epoch
Visualization orbit readout
Latitude
Unknown
Longitude
Unknown
Altitude
Unknown
Speed
Unknown
Apparent Right ascension
Unknown
Apparent Declination
Unknown
Sunlit
N/A
Visualization observer readout
Local Sidereal Time
05:46:18
Azimuth
Unknown
Elevation
Unknown
Doppler factor
Unknown
Orbital elements
Apogee altitude
1,410.865 km
Perigee altitude
1,348.118 km
Semi-major axis
7,757.628 km
Eccentricity
0.00404
Inclination
100.9027°
RAAN
90.2831°
Arg. of periapsis
41.8913°
True anomaly
73.58907°
Mean anomaly
73.1449°
Eccentric anomaly
73.36692°
Mean motion
3.17651 °/min
Orbital period
113.33 mins
BSTAR
0.000061536
Loading maneuver chart data...
Computing Atmospheric mass density...
Loading historical data...
Loading historical data...
Loading historical data...
Loading historical data...
Loading historical data...
Loading historical data...
Loading historical data...
Other satellites on launch #16 in the year 1966 (1966-02-28 UTC)

Documentation

Showing up to 5 results
|